This is the latest recevied weather packets stored in our database for station/object DB0TV-13. If no packets are shown the sender has not sent any weather packets the latest 10 day(s).
| Time | Temp. | Humidity | Pressure | Rain* | Wind** | Luminosity | Snow |
|---|---|---|---|---|---|---|---|
| 1777810220 | 20.56° C | 51% | 1011.6 hPa | 0 mm | - | 735 W/m² | - |
| 1777809620 | 20° C | 50% | 1011.6 hPa | 0 mm | - | 501 W/m² | - |
| 1777809019 | 20° C | 50% | 1011.7 hPa | 0 mm | - | 978 W/m² | - |
| 1777808419 | 19.44° C | 50% | 1011.8 hPa | 0 mm | - | 415 W/m² | - |
| 1777807820 | 20° C | 48% | 1011.9 hPa | 0 mm | - | 407 W/m² | - |
| 1777807220 | 20° C | 46% | 1011.7 hPa | 0 mm | - | 502 W/m² | - |
| 1777806620 | 20.56° C | 45% | 1011.8 hPa | 0 mm | - | 518 W/m² | - |
| 1777806019 | 20.56° C | 44% | 1011.7 hPa | 0 mm | - | 848 W/m² | - |
| 1777805420 | 20° C | 44% | 1011.7 hPa | 0 mm | - | 454 W/m² | - |
| 1777804820 | 20.56° C | 44% | 1011.7 hPa | 0 mm | - | 629 W/m² | - |
| 1777804219 | 20.56° C | 45% | 1011.8 hPa | 0 mm | - | 497 W/m² | - |
| 1777803619 | 21.11° C | 44% | 1011.6 hPa | 0 mm | - | 971 W/m² | - |
| 1777803020 | 20.56° C | 48% | 1011.8 hPa | 0 mm | - | 962 W/m² | - |
| 1777802419 | 19.44° C | 50% | 1011.8 hPa | 0 mm | - | 816 W/m² | - |
| 1777801819 | 18.89° C | 51% | 1011.7 hPa | 0 mm | - | 542 W/m² | - |
| 1777801219 | 18.89° C | 51% | 1011.8 hPa | 0 mm | - | 313 W/m² | - |
| 1777800619 | 20° C | 49% | 1011.9 hPa | 0 mm | - | 497 W/m² | - |
| 1777800019 | 19.44° C | 51% | 1011.8 hPa | 0 mm | - | 679 W/m² | - |
| 1777799419 | 18.89° C | 52% | 1011.7 hPa | 0 mm | - | 584 W/m² | - |
| 1777798819 | 18.33° C | 54% | 1011.9 hPa | 0 mm | - | 496 W/m² | - |
| 1777798219 | 17.78° C | 54% | 1012 hPa | 0 mm | - | 337 W/m² | - |
| 1777797619 | 18.33° C | 56% | 1012.1 hPa | 0 mm | - | 503 W/m² | - |
| 1777797019 | 17.78° C | 56% | 1012 hPa | 0 mm | - | 305 W/m² | - |
| 1777796419 | 17.78° C | 56% | 1012 hPa | 0 mm | - | 360 W/m² | - |
| 1777795819 | 18.33° C | 56% | 1012 hPa | 0 mm | - | 419 W/m² | - |
* Rain latest hour (hover to see other rain measurements)
** Current wind speed in m/s (hover to see current wind gust speed)